Date String (YYYY-MM-DD hh:mm:ss) UTC,Instrument flags,absolute air pressure of the measurement (hPa),sample flow rate (lpm),inlet stack bypass flow (lpm),air temperature of the measurement (°C),ambient temperature measured by the external sensor (°C),aerosol sample conditioner tube jacket temperature (°C),OPC LED temperature (°C),internal box temperature (°C),relative humidity of the measurement (%),span deviation,mass concentration of particles derived from Lorenz-Mie calculation of OPC scattering (μg/m³),mass concentration of particles derived from Lorenz-Mie calculation of OPC scattering (μg/m³),mass concentration of particles derived from Lorenz-Mie calculation of OPC scattering (μg/m³)
DateTimeUTC,F1_M11,P_M11,Q1_M11,Q2_M11,T1_M11,T2_M11,T3_M11,T4_M11,T5_M11,U1_M11,ZSPAN_M11,X2_M11,X0_M11,X1_M11
2024-02-17 03:00:00,SystemResetWarning,0834.9,5.00,000.00,018.4,017.7,000.0,027.0,020.0,12.6,0000.0,0002.86,0003.18,0002.71
2024-02-17 03:01:00,SystemResetWarning,0834.6,5.01,000.00,018.4,017.7,000.0,027.0,020.0,12.6,0000.0,0002.87,0003.44,0002.72
2024-02-17 03:02:00,SystemResetWarning,0834.9,5.00,000.00,018.3,017.6,000.0,027.0,020.0,12.6,0000.0,0002.85,0003.46,0002.71
2024-02-17 03:03:00,SystemResetWarning,0835.0,5.00,000.00,018.3,017.5,000.0,027.0,020.0,12.6,0000.0,0002.85,0003.48,0002.70
2024-02-17 03:04:00,SystemResetWarning,0835.0,5.00,000.00,018.4,017.8,000.0,027.1,020.2,12.6,0000.0,0002.85,0003.51,0002.69
2024-02-17 03:05:00,SystemResetWarning,0834.9,5.00,000.00,018.5,018.6,000.0,027.1,020.7,12.5,0000.0,0002.82,0003.45,0002.67
2024-02-17 03:06:00,SystemResetWarning,0834.7,4.99,000.00,018.8,019.3,000.0,027.2,021.1,12.3,0000.0,0002.79,0003.42,0002.65
2024-02-17 03:07:00,SystemResetWarning,0834.8,4.99,000.00,018.9,019.3,000.0,027.2,021.0,12.2,0000.0,0002.78,0003.42,0002.64
2024-02-17 03:08:00,SystemResetWarning,0835.0,4.99,000.00,018.8,019.1,000.0,027.1,020.8,12.2,0000.0,0002.77,0003.37,0002.64
2024-02-17 03:09:00,SystemResetWarning,0834.8,5.01,000.00,018.8,018.8,000.0,027.1,020.5,12.3,0000.0,0002.76,0003.35,0002.63
2024-02-17 03:10:00,SystemResetWarning,0834.7,5.00,000.00,018.7,018.6,000.0,027.1,020.4,12.3,0000.0,0002.77,0003.35,0002.63
2024-02-17 03:11:00,SystemResetWarning,0834.6,5.01,000.00,018.7,018.4,000.0,027.0,020.3,12.4,0000.0,0002.78,0003.38,0002.64
2024-02-17 03:12:00,SystemResetWarning,0834.8,5.00,000.00,018.6,018.2,000.0,027.0,020.1,12.4,0000.0,0002.76,0003.11,0002.64
2024-02-17 03:13:00,SystemResetWarning,0835.1,4.99,000.00,018.5,018.0,000.0,027.0,020.0,12.5,0000.0,0002.81,0003.11,0002.68
2024-02-17 03:14:00,SystemResetWarning,0835.2,5.00,000.00,018.5,017.9,000.0,027.0,020.0,12.5,0000.0,0002.82,0003.11,0002.71
2024-02-17 03:15:00,SystemResetWarning,0834.8,5.01,000.00,018.4,017.8,000.0,027.0,020.0,12.5,0000.0,0002.84,0003.17,0002.74
2024-02-17 03:16:00,SystemResetWarning,0834.7,5.00,000.00,018.4,017.7,000.0,027.1,020.0,12.5,0000.0,0002.91,0003.26,0002.80
2024-02-17 03:17:00,SystemResetWarning,0835.0,5.00,000.00,018.4,017.6,000.0,027.1,020.0,12.5,0000.0,0002.99,0003.37,0002.86
2024-02-17 03:18:00,SystemResetWarning,0834.9,5.00,000.00,018.4,017.5,000.0,027.1,020.0,12.5,0000.0,0003.05,0003.45,0002.91
2024-02-17 03:19:00,SystemResetWarning,0835.2,5.00,000.00,018.4,017.8,000.0,027.1,020.3,12.5,0000.0,0003.10,0003.55,0002.96
2024-02-17 03:20:00,SystemResetWarning,0834.8,5.01,000.00,018.6,018.7,000.0,027.2,020.8,12.4,0000.0,0003.13,0003.62,0003.00
2024-02-17 03:21:00,SystemResetWarning,0835.3,4.99,000.00,018.8,019.4,000.0,027.3,021.2,12.2,0000.0,0003.15,0003.67,0003.04
2024-02-17 03:22:00,SystemResetWarning,0835.1,4.99,000.00,018.9,019.3,000.0,027.2,021.0,12.1,0000.0,0003.19,0003.74,0003.09
2024-02-17 03:23:00,SystemResetWarning,0834.8,5.01,000.00,018.9,019.0,000.0,027.2,020.7,12.1,0000.0,0003.22,0003.79,0003.12
2024-02-17 03:24:00,SystemResetWarning,0834.7,5.01,000.00,018.8,018.8,000.0,027.1,020.5,12.1,0000.0,0003.23,0003.81,0003.14
2024-02-17 03:25:00,SystemResetWarning,0834.7,5.00,000.00,018.7,018.5,000.0,027.1,020.3,12.2,0000.0,0003.25,0003.81,0003.16
2024-02-17 03:26:00,SystemResetWarning,0835.1,4.99,000.00,018.6,018.3,000.0,027.1,020.1,12.2,0000.0,0003.26,0003.76,0003.17
2024-02-17 03:27:00,SystemResetWarning,0835.3,5.00,000.00,018.6,018.1,000.0,027.0,020.0,12.3,0000.0,0003.27,0003.78,0003.17
2024-02-17 03:28:00,SystemResetWarning,0834.9,5.00,000.00,018.5,018.0,000.0,027.1,020.0,12.3,0000.0,0003.27,0003.80,0003.18
2024-02-17 03:29:00,SystemResetWarning,0835.0,5.00,000.00,018.5,017.8,000.0,027.1,020.0,12.3,0000.0,0003.28,0003.84,0003.18
2024-02-17 03:30:00,SystemResetWarning,0835.0,5.01,000.00,018.4,017.7,000.0,027.1,020.0,12.3,0000.0,0003.26,0003.78,0003.17
2024-02-17 03:31:00,SystemResetWarning,0835.1,5.00,000.00,018.4,017.6,000.0,027.1,020.0,12.3,0000.0,0003.24,0003.71,0003.15
2024-02-17 03:32:00,SystemResetWarning,0835.1,4.99,000.00,018.4,017.6,000.0,027.1,020.0,12.3,0000.0,0003.23,0003.70,0003.15
2024-02-17 03:33:00,SystemResetWarning,0835.0,5.00,000.00,018.4,017.7,000.0,027.1,020.1,12.3,0000.0,0003.22,0003.70,0003.14
2024-02-17 03:34:00,SystemResetWarning,0835.1,5.02,000.00,018.5,018.4,000.0,027.2,020.6,12.2,0000.0,0003.21,0003.76,0003.12
2024-02-17 03:35:00,SystemResetWarning,0835.1,4.99,000.00,018.7,019.0,000.0,027.3,021.0,12.0,0000.0,0003.19,0004.06,0003.10
2024-02-17 03:36:00,SystemResetWarning,0835.1,4.99,000.00,018.8,018.9,000.0,027.2,020.8,12.0,0000.0,0003.19,0004.07,0003.07
2024-02-17 03:37:00,SystemResetWarning,0835.1,5.01,000.00,018.7,018.7,000.0,027.1,020.6,12.0,0000.0,0003.17,0004.04,0003.04
2024-02-17 03:38:00,SystemResetWarning,0835.1,5.00,000.00,018.7,018.5,000.0,027.1,020.4,12.0,0000.0,0003.14,0005.08,0003.00
2024-02-17 03:39:00,SystemResetWarning,0835.1,5.00,000.00,018.6,018.3,000.0,027.0,020.2,12.1,0000.0,0003.10,0005.16,0002.95
2024-02-17 03:40:00,SystemResetWarning,0835.2,5.00,000.00,018.5,018.2,000.0,027.0,020.0,12.1,0000.0,0003.08,0005.11,0002.92
2024-02-17 03:41:00,SystemResetWarning,0835.2,5.00,000.00,018.5,018.0,000.0,027.0,020.0,12.1,0000.0,0003.07,0005.23,0002.91
2024-02-17 03:42:00,SystemResetWarning,0835.3,5.01,000.00,018.4,017.8,000.0,027.1,020.0,12.1,0000.0,0003.06,0006.10,0002.89
2024-02-17 03:43:00,SystemResetWarning,0835.3,5.01,000.00,018.4,017.7,000.0,027.1,020.0,12.1,0000.0,0003.02,0006.04,0002.86
2024-02-17 03:44:00,SystemResetWarning,0835.3,5.00,000.00,018.4,017.6,000.0,027.1,020.0,12.2,0000.0,0002.98,0005.98,0002.83
2024-02-17 03:45:00,SystemResetWarning,0835.3,5.00,000.00,018.3,017.6,000.0,027.1,020.0,12.2,0000.0,0002.95,0006.59,0002.80
2024-02-17 03:46:00,SystemResetWarning,0835.3,5.01,000.00,018.4,018.2,000.0,027.2,020.4,12.1,0000.0,0002.91,0006.82,0002.77
2024-02-17 03:47:00,SystemResetWarning,0835.2,4.99,000.00,018.7,019.0,000.0,027.2,021.0,12.0,0000.0,0002.89,0006.78,0002.76
2024-02-17 03:48:00,SystemResetWarning,0835.2,5.00,000.00,018.9,019.4,000.0,027.3,021.2,11.8,0000.0,0002.86,0006.87,0002.73
2024-02-17 03:49:00,SystemResetWarning,0835.3,4.99,000.00,018.9,019.2,000.0,027.2,020.9,11.8,0000.0,0002.86,0006.19,0002.73
2024-02-17 03:50:00,SystemResetWarning,0835.3,4.99,000.00,018.8,019.0,000.0,027.1,020.7,11.8,0000.0,0002.88,0005.85,0002.72
2024-02-17 03:51:00,SystemResetWarning,0835.2,5.00,000.00,018.8,018.7,000.0,027.1,020.4,11.8,0000.0,0002.88,0005.85,0002.72
2024-02-17 03:52:00,SystemResetWarning,0835.2,5.00,000.00,018.7,018.5,000.0,027.1,020.3,11.9,0000.0,0002.86,0005.81,0002.73
2024-02-17 03:53:00,SystemResetWarning,0835.2,5.01,000.00,018.6,018.3,000.0,027.0,020.1,12.0,0000.0,0002.86,0005.75,0002.74
2024-02-17 03:54:00,SystemResetWarning,0835.2,5.00,000.00,018.6,018.1,000.0,027.0,020.0,12.0,0000.0,0002.88,0005.97,0002.75
2024-02-17 03:55:00,SystemResetWarning,0835.3,4.99,000.00,018.5,018.0,000.0,027.1,020.0,12.1,0000.0,0002.90,0006.40,0002.77
2024-02-17 03:56:00,SystemResetWarning,0835.3,5.00,000.00,018.5,017.8,000.0,027.1,020.0,12.1,0000.0,0002.92,0006.24,0002.79
2024-02-17 03:57:00,SystemResetWarning,0835.3,4.99,000.00,018.4,017.7,000.0,027.1,020.0,12.1,0000.0,0002.95,0005.43,0002.79
2024-02-17 03:58:00,SystemResetWarning,0835.2,5.00,000.00,018.4,017.7,000.0,027.1,020.0,12.1,0000.0,0002.96,0005.42,0002.81
2024-02-17 03:59:00,SystemResetWarning,0835.3,5.01,000.00,018.4,017.6,000.0,027.1,020.0,12.2,0000.0,0002.95,0005.28,0002.82
